| time (UTC) | temp F | wind direction | speed MPH | gust MPH | rain 1hr in | rain 24hr in | rain mn in | humidity % | barometer mb |
| 20260906130015 | 69 | 27 | 1.0 | 1.0 | 0.00 | 0.00 | 0.00 | 88 | 1015.6 |
| 20260906125513 | 68 | 60 | 2.0 | 2.0 | 0.00 | 0.00 | 0.00 | 89 | 1015.7 |
| 20260906125013 | 68 | 101 | 3.0 | 5.0 | 0.00 | 0.00 | 0.00 | 89 | 1015.7 |
| 20260906124508 | 68 | 63 | 4.0 | 6.0 | 0.00 | 0.00 | 0.00 | 90 | 1015.5 |
| 20260906124003 | 67 | 4 | 2.0 | 2.0 | 0.00 | 0.00 | 0.00 | 90 | 1015.4 |
| 20260906123456 | 67 | 159 | 0.0 | 1.0 | 0.00 | 0.00 | 0.00 | 91 | 1015.5 |
| 20260906122950 | 67 | 43 | 5.0 | 7.0 | 0.00 | 0.00 | 0.00 | 92 | 1015.3 |
| 20260906122445 | 67 | 53 | 1.0 | 2.0 | 0.00 | 0.00 | 0.00 | 92 | 1015.2 |
| 20260906121942 | 66 | 352 | 2.0 | 3.0 | 0.00 | 0.00 | 0.00 | 92 | 1015.2 |
| 20260906121438 | 66 | 35 | 3.0 | 3.0 | 0.00 | 0.00 | 0.00 | 92 | 1015.2 |
| 20260906120935 | 66 | 83 | 2.0 | 2.0 | 0.00 | 0.00 | 0.00 | 93 | 1015.0 |
| 20260906120429 | 66 | 356 | 3.0 | 3.0 | 0.00 | 0.00 | 0.00 | 93 | 1015.0 |
| 20260906115926 | 66 | 40 | 1.0 | 2.0 | 0.00 | 0.00 | 0.00 | 94 | 1015.2 |
| 20260906115421 | 66 | 57 | 2.0 | 2.0 | 0.00 | 0.00 | 0.00 | 95 | 1014.9 |
| 20260906114920 | 66 | 66 | 1.0 | 2.0 | 0.00 | 0.00 | 0.00 | 95 | 1015.0 |
| 20260906114415 | 65 | 254 | 1.0 | 1.0 | 0.00 | 0.00 | 0.00 | 95 | 1015.4 |
| 20260906113911 | 65 | 235 | 0.0 | 1.0 | 0.00 | 0.00 | 0.00 | 95 | 1014.9 |
| 20260906113409 | 65 | 279 | 2.0 | 3.0 | 0.00 | 0.00 | 0.00 | 95 | 1014.7 |
| 20260906112900 | 65 | 23 | 2.0 | 2.0 | 0.00 | 0.00 | 0.00 | 95 | 1014.5 |
| 20260906112355 | 65 | 274 | 1.0 | 1.0 | 0.00 | 0.00 | 0.00 | 95 | 1014.7 |
| 20260906111850 | 65 | 272 | 1.0 | 1.0 | 0.00 | 0.00 | 0.00 | 95 | 1014.7 |
| 20260906111350 | 66 | 297 | 1.0 | 1.0 | 0.00 | 0.00 | 0.00 | 95 | 1014.5 |
| 20260906110844 | 66 | 333 | 1.0 | 1.0 | 0.00 | 0.00 | 0.00 | 95 | 1014.5 |
| 20260906110340 | 66 | 293 | 1.0 | 1.0 | 0.00 | 0.00 | 0.00 | 95 | 1014.2 |
| 20260906105839 | 66 | 278 | 1.0 | 1.0 | 0.00 | 0.00 | 0.00 | 95 | 1014.2 |
| 20260906105335 | 66 | 53 | 1.0 | 1.0 | 0.00 | 0.00 | 0.00 | 96 | 1014.1 |
| 20260906104831 | 66 | 10 | 1.0 | 1.0 | 0.00 | 0.00 | 0.00 | 96 | 1014.1 |
| 20260906104329 | 66 | 272 | 0.0 | 0.0 | 0.00 | 0.00 | 0.00 | 96 | 1014.1 |
| 20260906103828 | 66 | 292 | 1.0 | 1.0 | 0.00 | 0.00 | 0.00 | 96 | 1014.2 |
| 20260906103326 | 66 | 351 | 2.0 | 2.0 | 0.00 | 0.00 | 0.00 | 95 | 1013.8 |
| 20260906102823 | 66 | 321 | 2.0 | 2.0 | 0.00 | 0.00 | 0.00 | 96 | 1013.8 |
| 20260906102321 | 66 | 346 | 1.0 | 1.0 | 0.00 | 0.00 | 0.00 | 96 | 1013.8 |
| 20260906101817 | 66 | 356 | 2.0 | 2.0 | 0.00 | 0.00 | 0.00 | 96 | 1013.7 |
| 20260906101312 | 66 | 295 | 2.0 | 2.0 | 0.00 | 0.00 | 0.00 | 96 | 1013.7 |
| 20260906100808 | 66 | 16 | 1.0 | 1.0 | 0.00 | 0.00 | 0.00 | 96 | 1013.7 |
| 20260906100306 | 67 | 84 | 2.0 | 2.0 | 0.00 | 0.00 | 0.00 | 96 | 1013.6 |
| 20260906095802 | 67 | 249 | 0.0 | 0.0 | 0.00 | 0.00 | 0.00 | 96 | 1013.7 |
| 20260906095257 | 67 | 242 | 1.0 | 1.0 | 0.00 | 0.00 | 0.00 | 96 | 1013.5 |
| 20260906094750 | 67 | 106 | 3.0 | 3.0 | 0.00 | 0.00 | 0.00 | 96 | 1013.7 |
| 20260906094246 | 67 | 325 | 1.0 | 1.0 | 0.00 | 0.00 | 0.00 | 97 | 1013.5 |
| 20260906093742 | 67 | 8 | 1.0 | 1.0 | 0.00 | 0.00 | 0.00 | 97 | 1013.6 |
| 20260906093238 | 67 | 62 | 0.0 | 1.0 | 0.00 | 0.00 | 0.00 | 97 | 1013.7 |
| 20260906092732 | 68 | 65 | 0.0 | 0.0 | 0.00 | 0.00 | 0.00 | 97 | 1013.7 |
| 20260906092232 | 68 | 247 | 0.0 | 1.0 | 0.00 | 0.00 | 0.00 | 97 | 1013.6 |
| 20260906091727 | 68 | 292 | 1.0 | 1.0 | 0.00 | 0.00 | 0.00 | 96 | 1013.9 |
| 20260906091224 | 68 | 345 | 2.0 | 2.0 | 0.00 | 0.00 | 0.00 | 97 | 1013.6 |
| 20260906090720 | 68 | 293 | 0.0 | 1.0 | 0.00 | 0.00 | 0.00 | 97 | 1013.6 |
| 20260906090219 | 69 | 3 | 1.0 | 1.0 | 0.00 | 0.00 | 0.00 | 97 | 1013.4 |
| 20260906085719 | 69 | 37 | 1.0 | 2.0 | 0.00 | 0.00 | 0.00 | 97 | 1013.3 |
| 20260906085217 | 69 | 286 | 1.0 | 1.0 | 0.00 | 0.00 | 0.00 | 98 | 1013.5 |
| 20260906084713 | 69 | 344 | 1.0 | 1.0 | 0.00 | 0.00 | 0.00 | 98 | 1013.5 |
| 20260906084207 | 69 | 42 | 3.0 | 5.0 | 0.00 | 0.00 | 0.00 | 98 | 1013.5 |
| 20260906083701 | 69 | 320 | 1.0 | 1.0 | 0.00 | 0.00 | 0.00 | 99 | 1013.7 |
| 20260906083156 | 70 | 275 | 1.0 | 1.0 | 0.00 | 0.00 | 0.00 | 99 | 1013.6 |
| 20260906082651 | 70 | 267 | 0.0 | 0.0 | 0.00 | 0.00 | 0.00 | 99 | 1013.6 |
| 20260906082142 | 70 | 314 | 1.0 | 1.0 | 0.00 | 0.00 | 0.00 | 99 | 1013.5 |
| 20260906081637 | 70 | 277 | 0.0 | 1.0 | 0.00 | 0.00 | 0.00 | 99 | 1013.7 |
| 20260906081132 | 70 | 302 | 1.0 | 1.0 | 0.00 | 0.00 | 0.00 | 98 | 1013.8 |
| 20260906080628 | 70 | 308 | 1.0 | 1.0 | 0.00 | 0.00 | 0.00 | 98 | 1013.5 |
| 20260906080125 | 70 | 312 | 1.0 | 1.0 | 0.00 | 0.00 | 0.00 | 98 | 1013.4 |
| 20260906075624 | 71 | 35 | 2.0 | 2.0 | 0.00 | 0.00 | 0.00 | 98 | 1013.6 |
| 20260906075119 | 71 | 33 | 2.0 | 3.0 | 0.00 | 0.00 | 0.00 | 98 | 1013.3 |
| 20260906074614 | 71 | 357 | 1.0 | 2.0 | 0.00 | 0.00 | 0.00 | 99 | 1013.4 |
| 20260906074113 | 71 | 284 | 0.0 | 0.0 | 0.00 | 0.00 | 0.00 | 99 | 1013.2 |
| 20260906073607 | 71 | 30 | 2.0 | 3.0 | 0.00 | 0.00 | 0.00 | 99 | 1013.4 |
| 20260906073103 | 71 | 35 | 1.0 | 1.0 | 0.00 | 0.00 | 0.00 | 99 | 1013.3 |
| 20260906072559 | 71 | 355 | 2.0 | 2.0 | 0.00 | 0.00 | 0.00 | 99 | 1013.3 |
| 20260906072055 | 71 | 64 | 1.0 | 2.0 | 0.00 | 0.00 | 0.00 | 98 | 1013.4 |
| 20260906071551 | 71 | 268 | 0.0 | 0.0 | 0.00 | 0.00 | 0.00 | 98 | 1013.5 |
| 20260906071050 | 71 | 229 | 0.0 | 0.0 | 0.00 | 0.00 | 0.00 | 98 | 1013.5 |
| 20260906070548 | 71 | 163 | 0.0 | 1.0 | 0.00 | 0.00 | 0.00 | 98 | 1013.4 |
| 20260906070043 | 71 | 272 | 0.0 | 1.0 | 0.00 | 0.00 | 0.00 | 98 | 1013.5 |
| 20260906065542 | 71 | 323 | 1.0 | 1.0 | 0.00 | 0.00 | 0.00 | 98 | 1013.5 |
| 20260906065038 | 71 | 355 | 2.0 | 2.0 | 0.00 | 0.00 | 0.00 | 99 | 1013.5 |
| 20260906064534 | 71 | 274 | 0.0 | 0.0 | 0.00 | 0.00 | 0.00 | 99 | 1013.5 |
| 20260906064028 | 71 | 256 | 0.0 | 0.0 | 0.00 | 0.00 | 0.00 | 99 | 1013.5 |
| 20260906063524 | 71 | 262 | 0.0 | 0.0 | 0.00 | 0.00 | 0.00 | 99 | 1013.3 |
| 20260906063020 | 71 | 40 | 1.0 | 1.0 | 0.00 | 0.00 | 0.00 | 99 | 1013.4 |
| 20260906062515 | 71 | 38 | 2.0 | 2.0 | 0.00 | 0.00 | 0.00 | 99 | 1013.4 |
| 20260906062009 | 71 | 67 | 1.0 | 1.0 | 0.00 | 0.00 | 0.00 | 99 | 1013.5 |
| 20260906061506 | 71 | 286 | 0.0 | 0.0 | 0.00 | 0.00 | 0.00 | 99 | 1013.6 |
| 20260906061005 | 71 | 339 | 0.0 | 0.0 | 0.00 | 0.00 | 0.00 | 99 | 1013.5 |
| 20260906060502 | 71 | 334 | 0.0 | 1.0 | 0.00 | 0.00 | 0.00 | 99 | 1013.6 |
| 20260906055958 | 71 | 250 | 0.0 | 0.0 | 0.00 | 0.00 | 0.00 | 99 | 1013.6 |
| 20260906055448 | 71 | 258 | 0.0 | 0.0 | 0.00 | 0.00 | 0.00 | 99 | 1013.5 |
| 20260906054943 | 71 | 358 | 1.0 | 1.0 | 0.00 | 0.00 | 0.00 | 99 | 1013.6 |
| 20260906054438 | 71 | 173 | 1.0 | 1.0 | 0.00 | 0.00 | 0.00 | 99 | 1013.6 |
| 20260906053934 | 71 | 263 | 0.0 | 1.0 | 0.00 | 0.00 | 0.00 | 99 | 1013.2 |
| 20260906053430 | 71 | 240 | 0.0 | 1.0 | 0.00 | 0.00 | 0.00 | 99 | 1013.5 |
| 20260906052925 | 71 | 290 | 0.0 | 1.0 | 0.00 | 0.00 | 0.00 | 99 | 1013.2 |
| 20260906052421 | 71 | 244 | 0.0 | 0.0 | 0.00 | 0.00 | 0.00 | 99 | 1013.1 |
| 20260906051918 | 71 | 212 | 0.0 | 0.0 | 0.00 | 0.00 | 0.00 | 99 | 1013.4 |
| 20260906051418 | 71 | 300 | 0.0 | 1.0 | 0.00 | 0.00 | 0.00 | 99 | 1013.4 |
| 20260906050914 | 71 | 5 | 1.0 | 1.0 | 0.00 | 0.00 | 0.00 | 99 | 1013.5 |
| 20260906050408 | 71 | 238 | 0.0 | 0.0 | 0.00 | 0.00 | 0.00 | 99 | 1013.3 |
| 20260906045907 | 71 | 237 | 0.0 | 0.0 | 0.00 | 0.00 | 0.00 | 99 | 1013.4 |
| 20260906045406 | 72 | 226 | 0.0 | 0.0 | 0.00 | 0.00 | 0.00 | 99 | 1013.3 |
| 20260906044903 | 72 | 225 | 0.0 | 0.0 | 0.00 | 0.00 | 0.00 | 99 | 1013.1 |
| 20260906044402 | 72 | 218 | 0.0 | 0.0 | 0.00 | 0.00 | 0.00 | 99 | 1013.2 |
| 20260906043858 | 72 | 236 | 0.0 | 0.0 | 0.00 | 0.00 | 0.00 | 99 | 1013.3 |
| 20260906043354 | 72 | 227 | 0.0 | 0.0 | 0.00 | 0.00 | 0.00 | 99 | 1012.9 |
| 20260906042849 | 72 | 311 | 1.0 | 1.0 | 0.00 | 0.00 | 0.00 | 99 | 1013.2 |
| 20260906042348 | 72 | 339 | 1.0 | 1.0 | 0.00 | 0.00 | 0.00 | 99 | 1013.2 |
| 20260906041843 | 72 | 348 | 2.0 | 2.0 | 0.00 | 0.00 | 0.00 | 99 | 1013.1 |
| 20260906041339 | 72 | 42 | 0.0 | 1.0 | 0.00 | 0.00 | 0.00 | 99 | 1013.2 |
| 20260906040834 | 73 | 36 | 2.0 | 2.0 | 0.00 | 0.00 | 0.00 | 99 | 1012.9 |
| 20260906040329 | 73 | 158 | 1.0 | 1.0 | 0.00 | 0.00 | 0.00 | 99 | 1013.1 |
| 20260906035824 | 73 | 180 | 0.0 | 1.0 | 0.00 | 0.34 | 0.34 | 99 | 1013.1 |
| 20260906035320 | 73 | 52 | 1.0 | 1.0 | 0.00 | 0.34 | 0.34 | 99 | 1013.1 |
| 20260906034815 | 73 | 231 | 0.0 | 0.0 | 0.00 | 0.34 | 0.34 | 98 | 1012.9 |
| 20260906034314 | 73 | 29 | 2.0 | 2.0 | 0.00 | 0.34 | 0.34 | 98 | 1013.1 |
| 20260906033810 | 73 | 36 | 1.0 | 1.0 | 0.00 | 0.34 | 0.34 | 98 | 1013.2 |
| 20260906033309 | 73 | 210 | 0.0 | 1.0 | 0.00 | 0.34 | 0.34 | 98 | 1013.2 |
| 20260906032806 | 73 | 210 | 0.0 | 1.0 | 0.00 | 0.34 | 0.34 | 98 | 1013.2 |
| 20260906032305 | 73 | 221 | 0.0 | 0.0 | 0.00 | 0.34 | 0.34 | 97 | 1013.3 |
| 20260906031756 | 73 | 232 | 0.0 | 0.0 | 0.00 | 0.34 | 0.34 | 97 | 1013.3 |
| 20260906031252 | 73 | 234 | 0.0 | 0.0 | 0.00 | 0.34 | 0.34 | 97 | 1013.4 |
| 20260906030746 | 74 | 227 | 0.0 | 0.0 | 0.00 | 0.34 | 0.34 | 97 | 1013.6 |
| 20260906030242 | 74 | 234 | 0.0 | 0.0 | 0.00 | 0.34 | 0.34 | 96 | 1013.6 |
| 20260906025742 | 74 | 219 | 0.0 | 0.0 | 0.00 | 0.34 | 0.34 | 96 | 1013.4 |
| 20260906025241 | 74 | 222 | 0.0 | 1.0 | 0.00 | 0.34 | 0.34 | 96 | 1013.3 |
| 20260906024740 | 74 | 86 | 1.0 | 1.0 | 0.00 | 0.34 | 0.34 | 95 | 1013.2 |
| 20260906024239 | 74 | 84 | 0.0 | 1.0 | 0.00 | 0.34 | 0.34 | 95 | 1013.4 |
| 20260906023735 | 75 | 82 | 0.0 | 1.0 | 0.00 | 0.34 | 0.34 | 94 | 1013.4 |
| 20260906023230 | 75 | 211 | 0.0 | 1.0 | 0.00 | 0.34 | 0.34 | 94 | 1013.4 |
| 20260906022726 | 75 | 96 | 2.0 | 2.0 | 0.00 | 0.34 | 0.34 | 94 | 1013.3 |
| 20260906022221 | 75 | 28 | 3.0 | 3.0 | 0.00 | 0.34 | 0.34 | 93 | 1013.3 |
| 20260906021717 | 75 | 357 | 2.0 | 2.0 | 0.00 | 0.34 | 0.34 | 93 | 1013.6 |
| 20260906021216 | 76 | 51 | 4.0 | 6.0 | 0.00 | 0.34 | 0.34 | 93 | 1013.7 |
| 20260906020711 | 76 | 44 | 2.0 | 2.0 | 0.00 | 0.34 | 0.34 | 93 | 1013.3 |
| 20260906020206 | 76 | 40 | 3.0 | 3.0 | 0.00 | 0.34 | 0.34 | 93 | 1013.5 |
| 20260906015705 | 76 | 292 | 2.0 | 2.0 | 0.00 | 0.34 | 0.34 | 93 | 1013.1 |
| 20260906015158 | 76 | 61 | 3.0 | 5.0 | 0.00 | 0.34 | 0.34 | 92 | 1013.2 |
| 20260906014653 | 76 | 40 | 2.0 | 3.0 | 0.00 | 0.34 | 0.34 | 93 | 1013.2 |
| 20260906014149 | 76 | 8 | 3.0 | 3.0 | 0.00 | 0.34 | 0.34 | 93 | 1013.3 |
| 20260906013645 | 76 | 63 | 1.0 | 2.0 | 0.00 | 0.34 | 0.34 | 94 | 1013.0 |
| 20260906013140 | 76 | 22 | 2.0 | 3.0 | 0.00 | 0.34 | 0.34 | 94 | 1012.8 |
| 20260906012639 | 76 | 68 | 3.0 | 3.0 | 0.00 | 0.34 | 0.34 | 94 | 1012.9 |
| 20260906012134 | 75 | 22 | 4.0 | 6.0 | 0.00 | 0.34 | 0.34 | 95 | 1012.8 |
| 20260906011630 | 75 | 35 | 3.0 | 5.0 | 0.00 | 0.34 | 0.34 | 97 | 1012.5 |
| 20260906011125 | 74 | 74 | 3.0 | 5.0 | 0.00 | 0.34 | 0.34 | 97 | 1012.0 |
| 20260906010620 | 75 | 69 | 1.0 | 1.0 | 0.00 | 0.34 | 0.34 | 97 | 1012.0 |
| 20260906010116 | 75 | 33 | 1.0 | 1.0 | 0.00 | 0.34 | 0.34 | 97 | 1012.2 |
| 20260906005615 | 75 | 16 | 1.0 | 1.0 | 0.00 | 0.34 | 0.34 | 96 | 1012.2 |
| 20260906005114 | 75 | 15 | 0.0 | 0.0 | 0.00 | 0.34 | 0.34 | 96 | 1012.2 |
| 20260906004614 | 75 | 15 | 0.0 | 0.0 | 0.00 | 0.34 | 0.34 | 96 | 1012.1 |
| 20260906004108 | 75 | 15 | 0.0 | 0.0 | 0.00 | 0.34 | 0.34 | 96 | 1012.2 |
| 20260906003604 | 75 | 15 | 0.0 | 1.0 | 0.00 | 0.34 | 0.34 | 95 | 1012.2 |
| 20260906003100 | 76 | 15 | 0.0 | 0.0 | 0.00 | 0.34 | 0.34 | 95 | 1012.3 |
| 20260906002554 | 76 | 16 | 1.0 | 1.0 | 0.00 | 0.34 | 0.34 | 95 | 1012.3 |
| 20260906002049 | 76 | 15 | 0.0 | 1.0 | 0.00 | 0.34 | 0.34 | 95 | 1012.1 |
| 20260906001539 | 76 | 15 | 0.0 | 0.0 | 0.00 | 0.34 | 0.34 | 95 | 1012.2 |
| 20260906001038 | 77 | 16 | 0.0 | 0.0 | 0.00 | 0.34 | 0.34 | 94 | 1012.1 |
| 20260906000534 | 77 | 57 | 1.0 | 2.0 | 0.00 | 0.34 | 0.34 | 94 | 1012.2 |
| 20260906000030 | 77 | 16 | 0.0 | 1.0 | 0.00 | 0.34 | 0.34 | 93 | 1012.0 |
| 20260905235524 | 78 | 15 | 0.0 | 0.0 | 0.00 | 0.34 | 0.34 | 92 | 1011.9 |
| 20260905235019 | 78 | 347 | 0.0 | 1.0 | 0.00 | 0.34 | 0.34 | 91 | 1012.1 |
| 20260905234515 | 79 | 294 | 1.0 | 1.0 | 0.00 | 0.34 | 0.34 | 89 | 1012.1 |
| 20260905234014 | 80 | 293 | 1.0 | 1.0 | 0.00 | 0.34 | 0.34 | 87 | 1012.1 |
| 20260905233509 | 81 | 285 | 0.0 | 1.0 | 0.00 | 0.34 | 0.34 | 84 | 1011.9 |
| 20260905233009 | 81 | 258 | 0.0 | 0.0 | 0.00 | 0.34 | 0.34 | 80 | 1011.9 |
| 20260905232504 | 82 | 279 | 2.0 | 2.0 | 0.00 | 0.34 | 0.34 | 79 | 1011.9 |
| 20260905232000 | 82 | 267 | 1.0 | 2.0 | 0.00 | 0.34 | 0.34 | 79 | 1011.9 |
| 20260905231450 | 82 | 264 | 0.0 | 1.0 | 0.00 | 0.34 | 0.34 | 79 | 1011.9 |
| 20260905230947 | 83 | 264 | 1.0 | 1.0 | 0.00 | 0.34 | 0.34 | 78 | 1012.1 |
| 20260905230444 | 83 | 290 | 0.0 | 1.0 | 0.00 | 0.34 | 0.34 | 76 | 1011.8 |
| 20260905225937 | 84 | 278 | 1.0 | 1.0 | 0.00 | 0.34 | 0.34 | 74 | 1011.7 |
| 20260905225432 | 84 | 246 | 1.0 | 1.0 | 0.00 | 0.34 | 0.34 | 74 | 1012.0 |
| 20260905224927 | 85 | 14 | 1.0 | 1.0 | 0.00 | 0.34 | 0.34 | 73 | 1011.9 |
| 20260905224423 | 85 | 264 | 2.0 | 2.0 | 0.00 | 0.34 | 0.34 | 73 | 1012.1 |
| 20260905223916 | 85 | 264 | 1.0 | 2.0 | 0.00 | 0.34 | 0.34 | 73 | 1012.0 |
| 20260905223414 | 85 | 275 | 1.0 | 1.0 | 0.00 | 0.34 | 0.34 | 73 | 1011.8 |
| 20260905222909 | 86 | 266 | 0.0 | 1.0 | 0.00 | 0.34 | 0.34 | 71 | 1012.0 |
| 20260905222408 | 86 | 302 | 1.0 | 1.0 | 0.00 | 0.34 | 0.34 | 72 | 1012.0 |
| 20260905221904 | 86 | 257 | 2.0 | 2.0 | 0.00 | 0.34 | 0.34 | 71 | 1011.7 |
| 20260905221401 | 85 | 282 | 3.0 | 3.0 | 0.00 | 0.34 | 0.34 | 71 | 1011.9 |
| 20260905220856 | 87 | 292 | 2.0 | 2.0 | 0.00 | 0.34 | 0.34 | 69 | 1011.9 |
| 20260905220352 | 85 | 288 | 1.0 | 2.0 | 0.00 | 0.34 | 0.34 | 72 | 1011.9 |
| 20260905215851 | 86 | 255 | 2.0 | 2.0 | 0.00 | 0.34 | 0.34 | 70 | 1011.9 |
| 20260905215347 | 85 | 322 | 1.0 | 1.0 | 0.00 | 0.34 | 0.34 | 71 | 1012.0 |
| 20260905214843 | 85 | 229 | 5.0 | 7.0 | 0.00 | 0.34 | 0.34 | 70 | 1012.1 |
| 20260905214338 | 86 | 226 | 3.0 | 5.0 | 0.00 | 0.34 | 0.34 | 67 | 1011.7 |
| 20260905213833 | 87 | 249 | 3.0 | 3.0 | 0.00 | 0.34 | 0.34 | 67 | 1011.7 |
| 20260905213329 | 87 | 323 | 1.0 | 1.0 | 0.00 | 0.34 | 0.34 | 67 | 1011.7 |
| 20260905212824 | 86 | 275 | 1.0 | 1.0 | 0.00 | 0.34 | 0.34 | 69 | 1011.7 |
| 20260905212318 | 85 | 68 | 1.0 | 2.0 | 0.00 | 0.34 | 0.34 | 69 | 1011.8 |
| 20260905211813 | 87 | 317 | 1.0 | 1.0 | 0.00 | 0.34 | 0.34 | 68 | 1011.6 |
| 20260905211308 | 86 | 278 | 0.0 | 1.0 | 0.00 | 0.34 | 0.34 | 69 | 1011.8 |
| 20260905210805 | 86 | 230 | 3.0 | 3.0 | 0.00 | 0.34 | 0.34 | 68 | 1011.7 |
| 20260905210304 | 86 | 242 | 1.0 | 1.0 | 0.00 | 0.34 | 0.34 | 67 | 1011.8 |
| 20260905205803 | 86 | 226 | 3.0 | 5.0 | 0.00 | 0.34 | 0.34 | 67 | 1011.9 |
| 20260905205258 | 86 | 237 | 0.0 | 1.0 | 0.00 | 0.34 | 0.34 | 69 | 1011.9 |
| 20260905204757 | 87 | 227 | 0.0 | 1.0 | 0.00 | 0.34 | 0.34 | 65 | 1011.8 |
| 20260905204254 | 87 | 297 | 1.0 | 2.0 | 0.00 | 0.34 | 0.34 | 66 | 1012.2 |
| 20260905203752 | 87 | 234 | 1.0 | 2.0 | 0.00 | 0.34 | 0.34 | 66 | 1011.9 |
| 20260905203248 | 86 | 252 | 3.0 | 3.0 | 0.00 | 0.34 | 0.34 | 66 | 1012.1 |
| 20260905202744 | 87 | 243 | 1.0 | 1.0 | 0.00 | 0.34 | 0.34 | 64 | 1012.1 |
| 20260905202238 | 86 | 252 | 3.0 | 3.0 | 0.00 | 0.34 | 0.34 | 67 | 1012.0 |
| 20260905201734 | 86 | 234 | 2.0 | 2.0 | 0.00 | 0.34 | 0.34 | 66 | 1012.2 |
| 20260905201229 | 87 | 257 | 3.0 | 3.0 | 0.00 | 0.34 | 0.34 | 63 | 1012.3 |
| 20260905200724 | 85 | 263 | 3.0 | 5.0 | 0.00 | 0.34 | 0.34 | 70 | 1012.2 |
| 20260905200220 | 87 | 240 | 1.0 | 1.0 | 0.00 | 0.34 | 0.34 | 66 | 1012.4 |
| 20260905195718 | 87 | 210 | 3.0 | 3.0 | 0.00 | 0.34 | 0.34 | 67 | 1012.3 |
| 20260905195212 | 85 | 273 | 2.0 | 3.0 | 0.00 | 0.34 | 0.34 | 70 | 1012.5 |
| 20260905194708 | 87 | 256 | 6.0 | 7.0 | 0.00 | 0.34 | 0.34 | 68 | 1012.6 |
| 20260905194208 | 86 | 288 | 3.0 | 3.0 | 0.00 | 0.34 | 0.34 | 69 | 1012.7 |
| 20260905193702 | 87 | 200 | 2.0 | 2.0 | 0.00 | 0.34 | 0.34 | 69 | 1012.5 |
| 20260905193157 | 88 | 230 | 0.0 | 1.0 | 0.00 | 0.34 | 0.34 | 69 | 1012.7 |
| 20260905192653 | 86 | 229 | 2.0 | 2.0 | 0.00 | 0.34 | 0.34 | 69 | 1012.5 |
| 20260905192149 | 86 | 248 | 3.0 | 5.0 | 0.00 | 0.34 | 0.34 | 69 | 1012.5 |
| 20260905191648 | 85 | 191 | 4.0 | 6.0 | 0.00 | 0.34 | 0.34 | 69 | 1012.7 |
| 20260905191146 | 85 | 275 | 4.0 | 5.0 | 0.00 | 0.34 | 0.34 | 72 | 1012.9 |
| 20260905190644 | 86 | 224 | 3.0 | 3.0 | 0.00 | 0.34 | 0.34 | 71 | 1013.0 |
| 20260905190138 | 87 | 262 | 3.0 | 3.0 | 0.00 | 0.34 | 0.34 | 69 | 1012.9 |
| 20260905185638 | 86 | 257 | 1.0 | 2.0 | 0.00 | 0.34 | 0.34 | 70 | 1013.1 |
| 20260905185138 | 85 | 255 | 2.0 | 2.0 | 0.00 | 0.34 | 0.34 | 72 | 1013.1 |
| 20260905184632 | 86 | 209 | 0.0 | 1.0 | 0.00 | 0.34 | 0.34 | 68 | 1013.1 |
| 20260905184131 | 85 | 253 | 3.0 | 3.0 | 0.00 | 0.34 | 0.34 | 69 | 1013.2 |
| 20260905183630 | 84 | 160 | 2.0 | 3.0 | 0.00 | 0.34 | 0.34 | 71 | 1013.3 |
| 20260905183126 | 84 | 239 | 3.0 | 5.0 | 0.00 | 0.34 | 0.34 | 72 | 1013.2 |
| 20260905182625 | 84 | 244 | 4.0 | 5.0 | 0.00 | 0.34 | 0.34 | 73 | 1013.4 |
| 20260905182125 | 83 | 235 | 3.0 | 3.0 | 0.00 | 0.34 | 0.34 | 73 | 1013.5 |
| 20260905181620 | 83 | 216 | 2.0 | 2.0 | 0.00 | 0.34 | 0.34 | 73 | 1013.4 |
| 20260905181119 | 84 | 193 | 2.0 | 3.0 | 0.00 | 0.34 | 0.34 | 73 | 1013.3 |
| 20260905180614 | 85 | 253 | 1.0 | 1.0 | 0.00 | 0.34 | 0.34 | 72 | 1013.4 |
| 20260905180109 | 85 | 237 | 3.0 | 3.0 | 0.00 | 0.34 | 0.34 | 72 | 1013.6 |
| 20260905175609 | 83 | 233 | 3.0 | 3.0 | 0.00 | 0.34 | 0.34 | 73 | 1013.6 |
| 20260905175104 | 84 | 200 | 2.0 | 2.0 | 0.00 | 0.34 | 0.34 | 72 | 1013.4 |
| 20260905174600 | 84 | 249 | 1.0 | 1.0 | 0.00 | 0.34 | 0.34 | 74 | 1013.6 |
| 20260905174055 | 85 | 172 | 3.0 | 3.0 | 0.00 | 0.34 | 0.34 | 72 | 1013.6 |
| 20260905173551 | 84 | 236 | 3.0 | 3.0 | 0.00 | 0.34 | 0.34 | 74 | 1013.8 |
| 20260905173047 | 83 | 211 | 2.0 | 2.0 | 0.00 | 0.34 | 0.34 | 76 | 1013.5 |
| 20260905172545 | 83 | 259 | 5.0 | 6.0 | 0.00 | 0.34 | 0.34 | 78 | 1013.6 |
| 20260905172040 | 84 | 250 | 4.0 | 5.0 | 0.00 | 0.34 | 0.34 | 76 | 1014.1 |
| 20260905171537 | 82 | 203 | 3.0 | 5.0 | 0.00 | 0.34 | 0.34 | 78 | 1013.9 |
| 20260905171033 | 81 | 225 | 1.0 | 1.0 | 0.00 | 0.34 | 0.34 | 78 | 1014.1 |
| 20260905170529 | 81 | 252 | 1.0 | 1.0 | 0.00 | 0.34 | 0.34 | 80 | 1014.0 |
| 20260905170024 | 82 | 121 | 3.0 | 3.0 | 0.00 | 0.34 | 0.34 | 79 | 1013.7 |
| 20260905165518 | 82 | 151 | 7.0 | 7.0 | 0.00 | 0.34 | 0.34 | 76 | 1014.1 |
| 20260905165014 | 82 | 152 | 3.0 | 3.0 | 0.00 | 0.34 | 0.34 | 77 | 1013.9 |
| 20260905164508 | 81 | 176 | 3.0 | 6.0 | 0.00 | 0.34 | 0.34 | 79 | 1013.8 |
| 20260905164003 | 81 | 228 | 3.0 | 5.0 | 0.00 | 0.34 | 0.34 | 80 | 1013.9 |
| 20260905163459 | 81 | 224 | 1.0 | 2.0 | 0.00 | 0.34 | 0.34 | 80 | 1014.0 |
| 20260905162955 | 82 | 287 | 1.0 | 1.0 | 0.00 | 0.34 | 0.34 | 78 | 1014.0 |
| 20260905162450 | 80 | 189 | 1.0 | 2.0 | 0.00 | 0.34 | 0.34 | 80 | 1014.0 |
| 20260905161945 | 80 | 174 | 5.0 | 7.0 | 0.00 | 0.34 | 0.34 | 81 | 1014.3 |
| 20260905161444 | 80 | 154 | 3.0 | 3.0 | 0.00 | 0.34 | 0.34 | 80 | 1014.4 |
| 20260905160942 | 79 | 161 | 1.0 | 2.0 | 0.00 | 0.34 | 0.34 | 83 | 1014.4 |
| 20260905160436 | 79 | 110 | 2.0 | 2.0 | 0.00 | 0.34 | 0.34 | 84 | 1014.6 |
| 20260905155936 | 79 | 174 | 2.0 | 3.0 | 0.00 | 0.34 | 0.34 | 81 | 1014.7 |
| 20260905155431 | 81 | 92 | 1.0 | 1.0 | 0.00 | 0.34 | 0.34 | 82 | 1014.5 |
| 20260905154930 | 80 | 114 | 2.0 | 2.0 | 0.00 | 0.34 | 0.34 | 82 | 1014.6 |
| 20260905154425 | 80 | 59 | 5.0 | 6.0 | 0.00 | 0.34 | 0.34 | 82 | 1014.4 |
| 20260905153920 | 78 | 192 | 0.0 | 0.0 | 0.00 | 0.34 | 0.34 | 85 | 1014.5 |
| 20260905153417 | 79 | 4 | 3.0 | 3.0 | 0.00 | 0.34 | 0.34 | 85 | 1014.3 |
| 20260905152916 | 78 | 198 | 0.0 | 0.0 | 0.00 | 0.34 | 0.34 | 87 | 1014.1 |
| 20260905152415 | 78 | 319 | 0.0 | 0.0 | 0.00 | 0.34 | 0.34 | 87 | 1014.6 |
| 20260905151911 | 75 | 265 | 1.0 | 1.0 | 0.00 | 0.34 | 0.34 | 93 | 1014.6 |
| 20260905151407 | 76 | 327 | 2.0 | 2.0 | 0.00 | 0.34 | 0.34 | 92 | 1014.7 |
| 20260905150906 | 75 | 1 | 2.0 | 2.0 | 0.00 | 0.34 | 0.34 | 92 | 1014.6 |
| 20260905150401 | 75 | 20 | 2.0 | 2.0 | 0.00 | 0.34 | 0.34 | 94 | 1014.6 |
| 20260905145858 | 75 | 187 | 1.0 | 1.0 | 0.00 | 0.34 | 0.34 | 95 | 1014.8 |
| 20260905145357 | 76 | 209 | 0.0 | 1.0 | 0.00 | 0.34 | 0.34 | 96 | 1014.7 |
| 20260905144852 | 74 | 22 | 2.0 | 3.0 | 0.00 | 0.34 | 0.34 | 97 | 1014.9 |
| 20260905144348 | 74 | 92 | 4.0 | 5.0 | 0.00 | 0.34 | 0.34 | 98 | 1014.7 |
| 20260905143846 | 74 | 35 | 1.0 | 2.0 | 0.00 | 0.34 | 0.34 | 99 | 1014.7 |
| 20260905143340 | 74 | 342 | 1.0 | 1.0 | 0.00 | 0.34 | 0.34 | 99 | 1014.8 |
| 20260905142839 | 74 | 1 | 1.0 | 2.0 | 0.00 | 0.34 | 0.34 | 99 | 1014.8 |
| 20260905142338 | 73 | 342 | 2.0 | 2.0 | 0.00 | 0.34 | 0.34 | 99 | 1014.8 |
| 20260905141834 | 74 | 355 | 2.0 | 2.0 | 0.00 | 0.34 | 0.34 | 99 | 1014.6 |
| 20260905141329 | 73 | 321 | 1.0 | 2.0 | 0.00 | 0.34 | 0.34 | 99 | 1014.6 |
| 20260905140825 | 73 | 291 | 1.0 | 1.0 | 0.00 | 0.34 | 0.34 | 99 | 1014.1 |
| 20260905140320 | 72 | 332 | 2.0 | 2.0 | 0.00 | 0.34 | 0.34 | 99 | 1013.8 |
| 20260905135818 | 72 | 262 | 5.0 | 6.0 | 0.00 | 0.34 | 0.34 | 99 | 1013.4 |
| 20260905135314 | 72 | 325 | 2.0 | 3.0 | 0.00 | 0.34 | 0.34 | 99 | 1013.1 |
| 20260905134809 | 71 | 266 | 5.0 | 7.0 | 0.00 | 0.34 | 0.34 | 99 | 1013.0 |
| 20260905134303 | 71 | 260 | 4.0 | 7.0 | 0.00 | 0.34 | 0.34 | 99 | 1011.6 |
| 20260905133757 | 71 | 193 | 2.0 | 3.0 | 0.00 | 0.34 | 0.34 | 99 | 1011.5 |
| 20260905133253 | 71 | 211 | 5.0 | 6.0 | 0.00 | 0.34 | 0.34 | 99 | 1012.6 |
| 20260905132752 | 71 | 189 | 1.0 | 1.0 | 0.00 | 0.34 | 0.34 | 99 | 1013.5 |
| 20260905132247 | 70 | 243 | 1.0 | 2.0 | 0.00 | 0.34 | 0.34 | 99 | 1013.7 |
| 20260905131742 | 70 | 239 | 4.0 | 5.0 | 0.00 | 0.34 | 0.34 | 99 | 1014.0 |
| 20260905131237 | 70 | 245 | 1.0 | 1.0 | 0.00 | 0.34 | 0.34 | 99 | 1014.1 |
| 20260905130732 | 70 | 255 | 3.0 | 3.0 | 0.00 | 0.34 | 0.34 | 99 | 1013.8 |